Regional Weather Roundup
Issued by NWS Goodland, KS

Home | Current Version | Previous Version | Graphics & Text | Print | Product List | Glossary On
Versions: 1 2 3 4 5 6 7 8 9 10 11 12 13 14 15 16 17 18 19 20 21 22 23 24 25 26 27 28 29 30 31 32 33 34 35 36 37 38 39 40 41 42 43 44 45 46 47 48 49 50
000
ASUS43 KGLD 220408
RWRGLD

GOODLAND FORECAST AREA HOURLY WEATHER ROUNDUP
NATIONAL WEATHER SERVICE GOODLAND KS
1000 PM MDT SAT OCT 21 2017

...OFFICIAL OBSERVATIONS...

CITY           SKY/WX    TMP DP  RH WIND       PRES   REMARKS
GOODLAND KS    CLEAR     40  17  39 NW9       30.09R
HILL CITY KS   CLOUDY    39  35  86 W5        30.05R
IMPERIAL NEB   CLEAR     44  20  38 W7        30.08R
MCCOOK NEB     CLEAR     42  26  53 W13       30.05R
AKRON CO       CLEAR     38  15  39 NW8       30.12S
BURLINGTON CO  CLEAR     31  18  58 W6        30.12R
LIMON CO       CLEAR     25  14  63 NW5       30.16S
$$

...UNOFFICIAL OBSERVATIONS...

CITY           SKY/WX    TMP DP  RH WIND       PRES   REMARKS
COLBY KS       CLEAR     37  27  65 NW9       30.07F
LENORA KS        N/A     43  32  65 NW7         N/A
NORTON KS      CLEAR     37  25  60 W10       30.03
SHARON SPRINGS   N/A     41  19  40 NW9         N/A
TRENTON NEB      N/A     41  32  70 NW7         N/A
KIT CARSON CO    N/A     36  15  42 MISG        N/A
YUMA CO        FAIR      32  19  59 W7        30.12S
$$




USA.gov is the U.S. government's official web portal to all federal, state and local government web resources and services.